GW2042 Weather Reports


Display with metric or nautical units.
time (UTC)temp
F
wind
direction
speed
MPH
gust
MPH
rain 1hr
in
rain 24hr
in
rain mn
in
humidity
%
barometer
mb
20260505083031 68 184 5.0 13.0 0.00 0.00 0.00 82 1006.1
20260505082521 68 221 3.0 12.0 0.00 0.00 0.00 82 1006.1
20260505082019 68 205 3.0 12.0 0.00 0.00 0.00 81 1006.2
20260505081531 68 199 4.0 12.0 0.00 0.00 0.00 81 1006.2
20260505081021 68 192 4.0 8.0 0.00 0.00 0.00 81 1006.2
20260505080516 68 213 4.0 8.0 0.00 0.00 0.00 81 1006.2
20260505080036 68 210 3.0 8.0 0.00 0.00 0.00 81 1006.1
20260505075515 68 132 3.0 9.0 0.00 0.00 0.00 81 1006.1
20260505075019 69 215 3.0 9.0 0.00 0.00 0.00 81 1006.3
20260505074532 69 192 4.0 9.0 0.00 0.00 0.00 80 1006.4
20260505074015 69 202 2.0 10.0 0.00 0.00 0.00 80 1006.4
20260505073520 69 185 3.0 10.0 0.00 0.00 0.00 80 1006.4
20260505073031 69 228 3.0 8.0 0.00 0.00 0.00 79 1006.5
20260505072516 69 174 3.0 9.0 0.00 0.00 0.00 79 1006.7
20260505072015 70 178 3.0 11.0 0.00 0.00 0.00 78 1006.7
20260505071541 70 173 3.0 12.0 0.00 0.00 0.00 78 1006.6
20260505071016 70 173 4.0 12.0 0.00 0.00 0.00 77 1006.8
20260505070521 70 130 5.0 11.0 0.00 0.00 0.00 77 1006.8
20260505070033 70 192 4.0 12.0 0.00 0.00 0.00 77 1006.8
20260505065516 70 181 4.0 12.0 0.00 0.00 0.00 77 1006.8
20260505065016 70 188 4.0 10.0 0.00 0.00 0.00 77 1006.9
20260505064531 70 196 4.0 10.0 0.00 0.00 0.00 77 1006.9
20260505064015 71 168 4.0 10.0 0.00 0.00 0.00 77 1007.0
20260505063515 71 162 3.0 12.0 0.00 0.00 0.00 77 1007.1
20260505063031 71 203 4.0 12.0 0.00 0.00 0.00 76 1007.1
20260505062515 71 233 4.0 13.0 0.00 0.00 0.00 76 1007.2
20260505062015 71 186 4.0 13.0 0.00 0.00 0.00 76 1007.2
20260505061532 71 162 4.0 13.0 0.00 0.00 0.00 76 1007.3
20260505061018 71 171 4.0 13.0 0.00 0.00 0.00 76 1007.3
20260505060516 71 190 4.0 12.0 0.00 0.00 0.00 76 1007.4
20260505060044 71 224 5.0 12.0 0.00 0.00 0.00 77 1007.4
20260505055520 70 185 4.0 12.0 0.00 0.00 0.00 77 1007.4
20260505055016 70 165 3.0 12.0 0.00 0.00 0.00 77 1007.4
20260505054535 70 165 3.0 14.0 0.00 0.00 0.00 77 1007.3
20260505054016 70 187 3.0 14.0 0.00 0.00 0.00 77 1007.3
20260505053517 70 180 3.0 12.0 0.00 0.00 0.00 77 1007.4
20260505053032 70 134 3.0 12.0 0.00 0.00 0.00 77 1007.4
20260505052515 70 167 2.0 10.0 0.00 0.00 0.00 77 1007.4
20260505052015 71 173 3.0 10.0 0.00 0.00 0.00 76 1007.3
20260505051535 71 186 4.0 11.0 0.00 0.00 0.00 76 1007.4
20260505051015 71 185 4.0 11.0 0.00 0.00 0.00 75 1007.4
20260505050516 71 154 3.0 10.0 0.00 0.00 0.00 75 1007.4
20260505041530 72 167 3.0 13.0 0.00 0.00 0.00 72 1007.3
20260505041016 72 174 3.0 12.0 0.00 0.00 0.00 72 1007.2
20260505040516 73 180 2.0 13.0 0.00 0.00 0.00 72 1007.2
20260505040036 73 168 4.0 13.0 0.00 0.00 0.00 72 1007.2
20260505035518 73 155 4.0 10.0 0.00 0.00 0.00 72 1007.1
20260505035015 73 182 3.0 10.0 0.00 0.00 0.00 72 1007.3
20260505034532 73 188 3.0 12.0 0.00 0.00 0.00 72 1007.2
20260505034015 73 159 4.0 12.0 0.00 0.00 0.00 71 1007.3
20260505033516 73 167 3.0 11.0 0.00 0.00 0.00 71 1007.3
20260505033031 73 175 3.0 11.0 0.00 0.00 0.00 71 1007.3
20260505032516 73 146 3.0 10.0 0.00 0.00 0.00 71 1007.2
20260505032015 73 160 2.0 10.0 0.00 0.00 0.00 71 1007.2
20260505031532 73 148 3.0 7.0 0.00 0.00 0.00 71 1007.1
20260505031016 73 164 2.0 8.0 0.00 0.00 0.00 71 1007.2
20260505030519 73 161 3.0 8.0 0.00 0.00 0.00 71 1007.1
20260505030032 73 167 3.0 8.0 0.00 0.00 0.00 71 1006.9
20260505025518 74 200 3.0 9.0 0.00 0.00 0.00 71 1006.9
20260505025015 74 150 2.0 9.0 0.00 0.00 0.00 71 1007.0
20260505024533 74 159 3.0 9.0 0.00 0.00 0.00 70 1006.8
20260505024015 74 181 2.0 7.0 0.00 0.00 0.00 70 1007.0
20260505023515 74 164 1.0 6.0 0.00 0.00 0.00 70 1006.9
20260505023032 74 154 2.0 6.0 0.00 0.00 0.00 70 1006.8
20260505022516 74 162 2.0 5.0 0.00 0.00 0.00 69 1006.8
20260505022022 74 161 2.0 5.0 0.00 0.00 0.00 69 1006.9
20260505021531 75 171 2.0 10.0 0.00 0.00 0.00 69 1006.9
20260505021016 75 173 2.0 10.0 0.00 0.00 0.00 68 1006.8
20260505020515 75 146 3.0 10.0 0.00 0.00 0.00 68 1006.9
20260505020032 75 145 2.0 8.0 0.00 0.00 0.00 68 1006.8
20260505015516 75 200 2.0 8.0 0.00 0.00 0.00 67 1007.0
20260505015016 75 159 2.0 7.0 0.00 0.00 0.00 67 1006.9
20260505014532 76 155 1.0 6.0 0.00 0.00 0.00 67 1006.9
20260505014019 76 161 2.0 9.0 0.00 0.00 0.00 67 1006.5
20260505013515 76 164 3.0 11.0 0.00 0.00 0.00 66 1006.4
20260505013041 76 150 3.0 11.0 0.00 0.00 0.00 66 1006.6
20260505012515 76 145 2.0 7.0 0.00 0.00 0.00 66 1006.5
20260505012016 76 164 2.0 6.0 0.00 0.00 0.00 65 1006.6
20260505011532 76 167 2.0 7.0 0.00 0.00 0.00 64 1006.7
20260505011016 77 140 2.0 7.0 0.00 0.00 0.00 64 1006.5
20260505010519 77 157 1.0 8.0 0.00 0.00 0.00 63 1006.4
20260505010034 77 169 3.0 8.0 0.00 0.00 0.00 63 1006.4
20260505005516 77 180 2.0 6.0 0.00 0.00 0.00 63 1006.5
20260505005016 78 191 2.0 6.0 0.00 0.00 0.00 63 1006.5
20260505004532 78 169 2.0 6.0 0.00 0.00 0.00 62 1006.6
20260505004014 78 234 2.0 6.0 0.00 0.00 0.00 62 1006.6
20260505003516 78 157 3.0 9.0 0.00 0.00 0.00 61 1006.6
20260505003034 78 174 3.0 10.0 0.00 0.00 0.00 61 1006.6
20260505002516 79 159 3.0 10.0 0.00 0.00 0.00 61 1006.4
20260505002015 79 155 3.0 10.0 0.00 0.00 0.00 61 1006.5
20260505001532 79 160 3.0 10.0 0.00 0.00 0.00 61 1006.7
20260505001015 79 223 2.0 9.0 0.00 0.00 0.00 61 1006.6
20260505000515 79 196 3.0 8.0 0.00 0.00 0.00 62 1006.8
20260505000036 78 169 2.0 7.0 0.00 0.00 0.00 63 1006.8
20260504235515 78 163 3.0 7.0 0.00 0.00 0.00 63 1006.7
20260504235015 78 223 2.0 7.0 0.00 0.00 0.00 63 1006.8
20260504234535 79 150 2.0 7.0 0.00 0.00 0.00 62 1007.1
20260504234015 79 173 3.0 7.0 0.00 0.00 0.00 62 1007.1
20260504233514 79 156 3.0 8.0 0.00 0.00 0.00 62 1007.1
20260504233033 79 154 3.0 8.0 0.00 0.00 0.00 61 1007.2
20260504232516 79 136 2.0 9.0 0.00 0.00 0.00 61 1007.1
20260504232015 80 148 4.0 11.0 0.00 0.00 0.00 60 1007.1
20260504231529 80 180 5.0 11.0 0.00 0.00 0.00 59 1007.3
20260504231015 80 186 5.0 12.0 0.00 0.00 0.00 59 1007.3
20260504230515 81 142 5.0 19.0 0.00 0.00 0.00 58 1007.5
20260504230030 82 167 5.0 19.0 0.00 0.00 0.00 58 1007.5
20260504225516 81 162 5.0 13.0 0.00 0.00 0.00 58 1007.7
20260504225017 81 167 3.0 12.0 0.00 0.00 0.00 59 1007.8
20260504224531 80 208 4.0 9.0 0.00 0.00 0.00 60 1007.8
20260504224015 80 158 4.0 9.0 0.00 0.00 0.00 59 1007.8
20260504223515 81 145 3.0 13.0 0.00 0.00 0.00 58 1007.7
20260504223038 81 165 5.0 13.0 0.00 0.00 0.00 58 1007.7
20260504222515 81 192 3.0 11.0 0.00 0.00 0.00 58 1007.8
20260504222019 81 137 4.0 11.0 0.00 0.00 0.00 58 1007.8
20260504221532 81 182 4.0 11.0 0.00 0.00 0.00 57 1007.8
20260504221015 82 178 4.0 12.0 0.00 0.00 0.00 57 1007.7
20260504220515 82 186 6.0 12.0 0.00 0.00 0.00 57 1007.8
20260504220040 81 173 4.0 11.0 0.00 0.00 0.00 59 1007.8
20260504215516 81 150 5.0 12.0 0.00 0.00 0.00 58 1007.7
20260504215015 81 161 4.0 12.0 0.00 0.00 0.00 59 1007.8
20260504214540 81 180 4.0 10.0 0.00 0.00 0.00 58 1008.0
20260504214019 81 171 4.0 10.0 0.00 0.00 0.00 57 1008.1
20260504213515 82 132 4.0 9.0 0.00 0.00 0.00 58 1008.2
20260504213034 82 132 3.0 15.0 0.00 0.00 0.00 57 1008.4
20260504212515 82 162 4.0 15.0 0.00 0.00 0.00 57 1008.3
20260504212017 82 225 7.0 14.0 0.00 0.00 0.00 56 1008.3
20260504211534 83 209 5.0 13.0 0.00 0.00 0.00 56 1008.4
20260504211015 83 159 5.0 12.0 0.00 0.00 0.00 55 1008.4
20260504210516 83 157 3.0 16.0 0.00 0.00 0.00 55 1008.6
20260504210033 84 207 3.0 16.0 0.00 0.00 0.00 55 1008.8
20260504205515 84 194 5.0 13.0 0.00 0.00 0.00 54 1008.9
20260504205016 84 159 3.0 19.0 0.00 0.00 0.00 54 1009.2
20260504204532 83 152 4.0 19.0 0.00 0.00 0.00 55 1009.1
20260504204015 82 223 7.0 18.0 0.00 0.00 0.00 55 1009.2
20260504203520 82 119 5.0 17.0 0.00 0.00 0.00 57 1009.2
20260504203032 82 172 4.0 17.0 0.00 0.00 0.00 56 1009.1
20260504202515 84 130 5.0 15.0 0.00 0.00 0.00 52 1009.2
20260504202016 83 134 6.0 14.0 0.00 0.00 0.00 55 1009.3
20260504201532 84 238 4.0 14.0 0.00 0.00 0.00 54 1009.3
20260504201018 84 143 6.0 14.0 0.00 0.00 0.00 53 1009.5
20260504200515 84 153 4.0 16.0 0.00 0.00 0.00 55 1009.4
20260504200031 83 154 5.0 16.0 0.00 0.00 0.00 55 1009.7
20260504195514 83 192 5.0 14.0 0.00 0.00 0.00 54 1009.8
20260504195015 83 153 5.0 15.0 0.00 0.00 0.00 55 1009.8
20260504194532 83 170 6.0 15.0 0.00 0.00 0.00 55 1009.9
20260504194015 83 180 6.0 15.0 0.00 0.00 0.00 53 1010.0
20260504193515 83 139 4.0 17.0 0.00 0.00 0.00 54 1010.3
20260504193031 82 166 8.0 17.0 0.00 0.00 0.00 56 1010.4
20260504192515 82 178 5.0 13.0 0.00 0.00 0.00 55 1010.4
20260504192015 82 175 6.0 14.0 0.00 0.00 0.00 54 1010.4
20260504191532 83 157 6.0 15.0 0.00 0.00 0.00 55 1010.5
20260504191015 81 161 8.0 15.0 0.00 0.00 0.00 56 1010.6
20260504190515 82 178 5.0 14.0 0.00 0.00 0.00 55 1010.7
20260504190032 82 188 8.0 14.0 0.00 0.00 0.00 54 1010.8
20260504185515 82 182 4.0 11.0 0.00 0.00 0.00 55 1010.7
20260504185018 81 175 4.0 15.0 0.00 0.00 0.00 57 1010.9
20260504184534 80 206 8.0 15.0 0.00 0.00 0.00 59 1010.7
20260504184015 81 215 6.0 15.0 0.00 0.00 0.00 54 1011.0
20260504183516 81 226 5.0 16.0 0.00 0.00 0.00 55 1011.1
20260504183033 81 186 4.0 17.0 0.00 0.00 0.00 55 1011.0
20260504182515 81 169 6.0 17.0 0.00 0.00 0.00 56 1011.0
20260504182015 80 258 5.0 17.0 0.00 0.00 0.00 56 1011.2
20260504181536 79 212 9.0 16.0 0.00 0.00 0.00 57 1011.2
20260504181018 79 170 6.0 19.0 0.00 0.00 0.00 57 1011.5
20260504180514 79 239 8.0 19.0 0.00 0.00 0.00 56 1011.6
20260504180032 80 182 6.0 14.0 0.00 0.00 0.00 55 1011.6
20260504175515 79 161 4.0 11.0 0.00 0.00 0.00 60 1011.7
20260504175015 79 127 5.0 16.0 0.00 0.00 0.00 58 1011.8
20260504174530 78 196 7.0 16.0 0.00 0.00 0.00 57 1011.9
20260504174015 78 180 4.0 13.0 0.00 0.00 0.00 60 1011.8
20260504173515 78 215 4.0 13.0 0.00 0.00 0.00 60 1011.9
20260504173031 78 166 6.0 15.0 0.00 0.00 0.00 57 1012.0
20260504172514 78 166 4.0 17.0 0.00 0.00 0.00 60 1012.0
20260504172016 77 212 4.0 17.0 0.00 0.00 0.00 58 1012.1
20260504171532 77 200 7.0 14.0 0.00 0.00 0.00 59 1012.1
20260504171014 76 189 6.0 14.0 0.00 0.00 0.00 59 1012.4
20260504170515 76 163 4.0 18.0 0.00 0.00 0.00 59 1012.4
20260504151015 70 192 7.0 22.0 0.00 0.00 0.00 68 1012.7
20260504150514 69 205 8.0 22.0 0.00 0.00 0.00 69 1012.8
20260504141015 64 187 4.0 17.0 0.00 0.00 0.00 77 1013.2
20260504140515 64 165 6.0 17.0 0.00 0.00 0.00 77 1013.0
20260504130517 58 219 3.0 10.0 0.00 0.00 0.00 84 1013.2
20260504110514 56 174 2.0 6.0 0.00 0.00 0.00 82 1012.7
20260504100514 57 172 2.0 6.0 0.00 0.00 0.00 78 1013.3